Starlink 11108

operational
NORAD ID: 59712 Int'l Des: 2024-088 Owner: SPXS Country: US Constellation: starlink
LEOCIRCULAR

About Starlink 11108

Description loading...

Live Position

Loading 3D Globe...

Upcoming Passes

Altitude History

Altitude vs Time

uPlot chart will show altitude changes over time

Two-Line Element Set

1 59712U 24088E 25351.76804145 -.00000911 00000-0 -26673-5 0 9999
2 59712 53.1585 10.2543 0001015 74.2354 285.8776 15.69702619 93405
Epoch: Dec 17, 2025 • Age: 12 hours

Current Status

Altitude 360.8 km
Velocity 7.70 km/s
Sub-Earth Point 29.16°N, 157.1°W
Launch Date May 10, 2024
Age 1.6 years
Type internet

Technical Details

Classification Payload
Mass 960.00 kg
Dry Mass 910.00 kg
Total Mass 960.00 kg
Length 0.30 m
Diameter 4.10 m
Span 29.00 m
Shape Box + pan
Manufacturer SPXS
Bus Type Starlink V2MD
Phase Status In Orbit
Owner/State SPXS/US

Large Constellations

Loading constellations...